TimeEDT,TemperatureF,Dew PointF,Humidity,Sea Level PressureIn,VisibilityMPH,Wind Direction,Wind SpeedMPH,Gust SpeedMPH,PrecipitationIn,Events,Conditions,WindDirDegrees,DateUTC
12:58 AM,54.9,53.1,94,30.03,10.0,Variable,3.5,-,N/A,,Clear,0,2013-08-15 04:58:00
1:58 AM,49.3,48.7,98,30.04,10.0,Calm,Calm,-,N/A,,Clear,0,2013-08-15 05:58:00
2:15 AM,48.2,48.2,100,30.02,2.5,East,2.3,-,N/A,,Clear,90,2013-08-15 06:15:00
2:23 AM,50.0,48.2,94,30.02,3.0,East,2.3,-,N/A,,Clear,80,2013-08-15 06:23:00
2:58 AM,48.7,48.2,98,30.05,10.0,Calm,Calm,-,N/A,,Clear,0,2013-08-15 06:58:00
3:23 AM,48.2,48.2,100,30.03,2.5,ESE,1.2,-,N/A,,Clear,120,2013-08-15 07:23:00
3:25 AM,48.2,48.2,100,30.04,2.0,Calm,Calm,-,N/A,,Clear,0,2013-08-15 07:25:00
3:26 AM,48.2,48.2,100,30.04,1.8,Calm,Calm,-,N/A,,Clear,0,2013-08-15 07:26:00
3:27 AM,48.2,46.4,93,30.04,1.5,Calm,Calm,-,N/A,,Clear,0,2013-08-15 07:27:00
3:28 AM,48.2,46.4,93,30.04,1.5,Calm,Calm,-,N/A,,Clear,0,2013-08-15 07:28:00
3:29 AM,48.2,46.4,93,30.04,1.2,Calm,Calm,-,N/A,,Clear,0,2013-08-15 07:29:00
3:31 AM,48.2,46.4,93,30.04,1.2,Calm,Calm,-,N/A,,Clear,0,2013-08-15 07:31:00
3:35 AM,48.2,46.4,93,30.04,1.5,Calm,Calm,-,N/A,,Clear,0,2013-08-15 07:35:00
3:36 AM,48.2,46.4,93,30.04,1.8,Calm,Calm,-,N/A,,Clear,0,2013-08-15 07:36:00
3:37 AM,48.2,46.4,93,30.04,2.0,Calm,Calm,-,N/A,,Clear,0,2013-08-15 07:37:00
3:40 AM,48.2,46.4,93,30.04,2.5,Calm,Calm,-,N/A,,Clear,0,2013-08-15 07:40:00
3:41 AM,48.2,46.4,93,30.04,2.0,Calm,Calm,-,N/A,,Clear,0,2013-08-15 07:41:00
3:42 AM,48.2,46.4,93,30.04,2.5,Calm,Calm,-,N/A,,Clear,0,2013-08-15 07:42:00
3:49 AM,48.2,48.2,100,30.04,3.0,Variable,1.2,-,N/A,,Clear,0,2013-08-15 07:49:00
3:58 AM,48.9,48.4,98,30.06,8.0,Calm,Calm,-,N/A,,Clear,0,2013-08-15 07:58:00
4:13 AM,48.2,46.4,93,30.04,2.0,NE,1.2,-,N/A,,Clear,50,2013-08-15 08:13:00
4:14 AM,48.2,46.4,93,30.04,1.5,NNE,1.2,-,N/A,,Clear,30,2013-08-15 08:14:00
4:15 AM,46.4,46.4,100,30.04,1.2,Calm,Calm,-,N/A,,Clear,0,2013-08-15 08:15:00
4:22 AM,48.2,48.2,100,30.04,1.5,Calm,Calm,-,N/A,,Clear,0,2013-08-15 08:22:00
4:23 AM,48.2,46.4,93,30.04,2.0,Calm,Calm,-,N/A,,Clear,0,2013-08-15 08:23:00
4:24 AM,48.2,46.4,93,30.04,3.0,Calm,Calm,-,N/A,,Clear,0,2013-08-15 08:24:00
4:31 AM,46.4,46.4,100,30.05,2.5,Calm,Calm,-,N/A,,Clear,0,2013-08-15 08:31:00
4:32 AM,46.4,46.4,100,30.05,2.0,Calm,Calm,-,N/A,,Clear,0,2013-08-15 08:32:00
4:34 AM,46.4,46.4,100,30.05,2.5,Calm,Calm,-,N/A,,Clear,0,2013-08-15 08:34:00
4:38 AM,48.2,48.2,100,30.05,3.0,Calm,Calm,-,N/A,,Clear,0,2013-08-15 08:38:00
4:58 AM,46.8,46.2,98,30.07,3.0,Calm,Calm,-,N/A,,Clear,0,2013-08-15 08:58:00
4:59 AM,46.4,46.4,100,30.05,2.0,NNE,1.2,-,N/A,,Clear,20,2013-08-15 08:59:00
5:00 AM,46.4,46.4,100,30.05,1.8,Calm,Calm,-,N/A,,Clear,0,2013-08-15 09:00:00
5:01 AM,46.4,46.4,100,30.05,1.5,Calm,Calm,-,N/A,,Clear,0,2013-08-15 09:01:00
5:02 AM,46.4,46.4,100,30.05,1.2,Calm,Calm,-,N/A,,Clear,0,2013-08-15 09:02:00
5:03 AM,46.4,46.4,100,30.05,1.2,Calm,Calm,-,N/A,,Clear,0,2013-08-15 09:03:00
5:04 AM,46.4,46.4,100,30.05,1.0,Calm,Calm,-,N/A,,Clear,0,2013-08-15 09:04:00
5:06 AM,46.4,46.4,100,30.05,1.0,Calm,Calm,-,N/A,,Clear,0,2013-08-15 09:06:00
5:07 AM,46.4,46.4,100,30.05,1.0,Calm,Calm,-,N/A,,Clear,0,2013-08-15 09:07:00
5:08 AM,46.4,46.4,100,30.05,0.8,Calm,Calm,-,N/A,,Clear,0,2013-08-15 09:08:00
5:09 AM,46.4,46.4,100,30.05,1.0,Calm,Calm,-,N/A,,Clear,0,2013-08-15 09:09:00
5:10 AM,46.4,46.4,100,30.05,1.0,Calm,Calm,-,N/A,,Clear,0,2013-08-15 09:10:00
5:11 AM,46.4,46.4,100,30.05,1.0,Calm,Calm,-,N/A,,Clear,0,2013-08-15 09:11:00
5:16 AM,46.4,46.4,100,30.05,1.2,Calm,Calm,-,N/A,,Clear,0,2013-08-15 09:16:00
5:18 AM,46.4,46.4,100,30.05,1.5,Calm,Calm,-,N/A,,Clear,0,2013-08-15 09:18:00
5:19 AM,46.4,46.4,100,30.05,1.5,Calm,Calm,-,N/A,,Clear,0,2013-08-15 09:19:00
5:21 AM,46.4,46.4,100,30.06,1.5,Calm,Calm,-,N/A,,Clear,0,2013-08-15 09:21:00
5:22 AM,46.4,46.4,100,30.06,1.5,Calm,Calm,-,N/A,,Clear,0,2013-08-15 09:22:00
5:23 AM,46.4,46.4,100,30.06,1.8,Calm,Calm,-,N/A,,Clear,0,2013-08-15 09:23:00
5:24 AM,46.4,46.4,100,30.06,2.0,Calm,Calm,-,N/A,,Clear,0,2013-08-15 09:24:00
5:26 AM,46.4,44.6,93,30.06,2.5,Calm,Calm,-,N/A,,Clear,0,2013-08-15 09:26:00
5:28 AM,46.4,46.4,100,30.06,3.0,Calm,Calm,-,N/A,,Clear,0,2013-08-15 09:28:00
5:37 AM,46.4,46.4,100,30.06,2.5,ENE,2.3,-,N/A,,Clear,60,2013-08-15 09:37:00
5:38 AM,46.4,46.4,100,30.06,2.0,ENE,2.3,-,N/A,,Clear,60,2013-08-15 09:38:00
5:39 AM,46.4,44.6,93,30.06,1.5,ENE,2.3,-,N/A,,Clear,60,2013-08-15 09:39:00
5:40 AM,46.4,44.6,93,30.06,1.2,NE,2.3,-,N/A,,Clear,50,2013-08-15 09:40:00
5:41 AM,46.4,44.6,93,30.06,1.0,NE,2.3,-,N/A,,Clear,50,2013-08-15 09:41:00
5:44 AM,46.4,44.6,93,30.06,0.8,Calm,Calm,-,N/A,,Clear,0,2013-08-15 09:44:00
5:45 AM,46.4,44.6,93,30.06,0.8,Calm,Calm,-,N/A,,Clear,0,2013-08-15 09:45:00
5:48 AM,46.4,44.6,93,30.06,0.8,Calm,Calm,-,N/A,,Clear,0,2013-08-15 09:48:00
5:49 AM,46.4,46.4,100,30.06,0.8,Calm,Calm,-,N/A,,Clear,0,2013-08-15 09:49:00
5:50 AM,46.4,46.4,100,30.06,1.0,Calm,Calm,-,N/A,,Clear,0,2013-08-15 09:50:00
5:52 AM,46.4,46.4,100,30.07,1.2,Calm,Calm,-,N/A,,Clear,0,2013-08-15 09:52:00
5:54 AM,46.4,46.4,100,30.07,1.8,Calm,Calm,-,N/A,,Clear,0,2013-08-15 09:54:00
5:55 AM,46.4,46.4,100,30.07,2.5,Calm,Calm,-,N/A,,Clear,0,2013-08-15 09:55:00
5:56 AM,46.4,44.6,93,30.07,5.0,Calm,Calm,-,N/A,,Clear,0,2013-08-15 09:56:00
5:58 AM,45.9,45.3,98,30.09,8.0,NE,1.2,-,N/A,,Clear,40,2013-08-15 09:58:00
6:19 AM,44.6,44.6,100,30.08,2.5,Calm,Calm,-,N/A,,Clear,0,2013-08-15 10:19:00
6:20 AM,44.6,44.6,100,30.08,2.0,Calm,Calm,-,N/A,,Clear,0,2013-08-15 10:20:00
6:21 AM,44.6,44.6,100,30.08,1.8,Calm,Calm,-,N/A,,Clear,0,2013-08-15 10:21:00
6:27 AM,46.4,44.6,93,30.08,2.0,Calm,Calm,-,N/A,,Clear,0,2013-08-15 10:27:00
6:28 AM,46.4,44.6,93,30.08,3.0,Calm,Calm,-,N/A,,Clear,0,2013-08-15 10:28:00
6:58 AM,48.7,48.6,99,30.11,10.0,Calm,Calm,-,N/A,,Clear,0,2013-08-15 10:58:00
7:58 AM,57.7,57.4,99,30.11,10.0,South,2.3,-,N/A,,Clear,190,2013-08-15 11:58:00
8:58 AM,62.4,55.0,77,30.12,10.0,South,3.5,-,N/A,,Clear,190,2013-08-15 12:58:00
9:58 AM,66.7,55.0,66,30.12,10.0,West,4.6,-,N/A,,Clear,260,2013-08-15 13:58:00
10:58 AM,69.8,54.9,59,30.12,10.0,Variable,5.8,-,N/A,,Clear,0,2013-08-15 14:58:00
11:58 AM,71.4,52.9,52,30.11,10.0,WSW,8.1,-,N/A,,Scattered Clouds,250,2013-08-15 15:58:00
12:58 PM,72.9,51.1,46,30.09,10.0,WNW,10.4,-,N/A,,Clear,300,2013-08-15 16:58:00
1:58 PM,75.4,49.6,40,30.09,10.0,WNW,10.4,-,N/A,,Partly Cloudy,290,2013-08-15 17:58:00
2:58 PM,73.8,49.1,42,30.08,10.0,NW,6.9,-,N/A,,Partly Cloudy,310,2013-08-15 18:58:00
3:58 PM,74.7,50.2,42,30.06,10.0,West,13.8,17.3,N/A,,Mostly Cloudy,280,2013-08-15 19:58:00
4:58 PM,75.0,51.1,43,30.06,10.0,NW,8.1,-,N/A,,Scattered Clouds,310,2013-08-15 20:58:00
5:58 PM,73.9,50.0,43,30.07,10.0,NW,8.1,-,N/A,,Scattered Clouds,320,2013-08-15 21:58:00
6:58 PM,72.3,51.6,48,30.08,10.0,NW,8.1,-,N/A,,Mostly Cloudy,310,2013-08-15 22:58:00
7:58 PM,67.8,51.8,56,30.10,10.0,NW,3.5,-,N/A,,Clear,310,2013-08-15 23:58:00
8:58 PM,57.6,54.7,90,30.12,10.0,Calm,Calm,-,N/A,,Clear,0,2013-08-16 00:58:00
9:58 PM,55.2,54.7,98,30.14,10.0,SSE,2.3,-,N/A,,Clear,150,2013-08-16 01:58:00
10:58 PM,52.3,51.8,98,30.14,10.0,Calm,Calm,-,N/A,,Clear,0,2013-08-16 02:58:00
11:42 PM,51.8,51.8,100,30.13,2.0,NNE,3.5,-,N/A,,Clear,30,2013-08-16 03:42:00
11:43 PM,51.8,51.8,100,30.13,1.8,NE,3.5,-,N/A,,Clear,40,2013-08-16 03:43:00
11:44 PM,51.8,51.8,100,30.13,1.5,NE,3.5,-,N/A,,Clear,40,2013-08-16 03:44:00
11:45 PM,51.8,51.8,100,30.13,1.2,NE,3.5,-,N/A,,Clear,40,2013-08-16 03:45:00
11:46 PM,51.8,51.8,100,30.13,1.0,NE,3.5,-,N/A,,Clear,40,2013-08-16 03:46:00
11:52 PM,50.0,50.0,100,30.13,1.2,NE,2.3,-,N/A,,Clear,40,2013-08-16 03:52:00
11:53 PM,51.8,50.0,94,30.13,1.5,NE,2.3,-,N/A,,Clear,40,2013-08-16 03:53:00
11:54 PM,51.8,51.8,100,30.13,2.0,NE,2.3,-,N/A,,Clear,40,2013-08-16 03:54:00
11:55 PM,51.8,51.8,100,30.13,3.0,NE,2.3,-,N/A,,Clear,40,2013-08-16 03:55:00
11:58 PM,51.6,51.4,99,30.15,9.0,NE,2.3,-,N/A,,Clear,50,2013-08-16 03:58:00